Weather in Penkino

Russia / Vladimir Oblast     56°11′26″N   40°54′41″E
temp.,
°C
wind,
m/s
gust,
m/s
humid.,
%
clouds,
%
prec.,
mm/h
press.,
hPa
HPBL,
m
27 february, sat
sat2700:00+1wnw61398100 0.8 995734
03:00+1wnw61297100 1.7 997729
06:00−8nw71293100 0.6 999637
09:00−11n61190100 1.0 1003654
12:00−10n5886100 0.1 1007618
15:00−9nnw4787100 0.1 1009625
18:00−11nnw3695100 0.0 1010145
21:00−13nnw369698 0.1 1012140
28 february, sun
sun2800:00−14nnw239778 0.0 101372
03:00−15nnw239758 0.0 101440
06:00−15nw229784 0.1 101553
09:00−12nnw239382 0.1 1015211
12:00−8nw238795 0.0 1015425
15:00−6nnw248898 0.1 1016525
18:00−7nw1295100 0.1 101643
21:00−7nne2296100 0.2 101971
1 march, mon
mon100:00−8ne1196100 0.1 102027
03:00−11sw119699 0.1 102221
06:00−10wsw229799 0.1 102227
09:00−8wsw249687 0.1 1023135
12:00−4wsw359392 0.0 1022351
15:00−1wsw579096 0.1 1020622
18:00−2wsw51092100 0.1 1017619
21:000wsw61294100 0.1 1014658
2 march, tue
tue200:00+1w71397100 0.4 1010704
03:00+1w61397100 0.6 1008782
06:00+1wnw71297100 0.9 1005823
09:000nw71292100 1.2 10061023
12:00+1nw6118884 0.1 10071073
15:000nw6119190 0.3 10071116
18:00−1nw51296100 0.4 1007697
21:00−2nw5139199 0.4 1009679
3 march, wed
wed300:00−4nw4129495 0.0 1010533
03:00−3nw5119394 0.1 1011528
06:00−6nw4119566 0.0 1012312
09:00−4nnw6109083 0.2 1013779
12:00−2nw6986100 0.1 1014907
15:00−1nw6987100 0.2 1014978
18:00−3nw51089100 0.1 1014764
21:00−3nw41092100 0.3 1016698